GW0756 Weather Reports


time (UTC)temp
C
wind
direction
speed
KPH
gust
KPH
rain 1hr
cm
rain 24hr
cm
rain mn
cm
humidity
%
barometer
mb
20260507065035 5 250 0.0 0.0 0.00 0.00 0.00 96 1019.5
20260507064532 5 250 0.0 0.0 0.00 0.00 0.00 96 1019.7
20260507064031 5 250 0.0 0.0 0.00 0.00 0.00 96 1019.6
20260507063527 5 250 0.0 0.0 0.00 0.00 0.00 96 1019.5
20260507063025 5 250 0.0 0.0 0.00 0.00 0.00 96 1019.5
20260507062521 4 250 0.0 0.0 0.00 0.00 0.00 96 1019.7
20260507062019 4 250 0.0 0.0 0.00 0.00 0.00 96 1019.6
20260507061517 4 250 0.0 0.0 0.00 0.00 0.00 95 1019.8
20260507061015 3 250 0.0 0.0 0.00 0.00 0.00 95 1019.9
20260507060512 3 250 0.0 0.0 0.00 0.00 0.00 95 1019.9
20260507060009 3 250 0.0 0.0 0.00 0.00 0.00 95 1019.9
20260507055503 3 250 0.0 0.0 0.00 0.00 0.00 95 1019.8
20260507055000 3 250 0.0 0.0 0.00 0.00 0.00 95 1019.7
20260507054456 3 250 0.0 0.0 0.00 0.00 0.00 95 1019.8
20260507053954 3 250 0.0 0.0 0.00 0.00 0.00 95 1019.5
20260507053451 3 250 0.0 0.0 0.00 0.00 0.00 95 1019.6
20260507052949 3 250 0.0 0.0 0.00 0.00 0.00 95 1019.7
20260507052447 3 250 0.0 0.0 0.00 0.00 0.00 95 1019.8
20260507051943 3 250 0.0 0.0 0.00 0.00 0.00 95 1019.7
20260507051441 3 250 0.0 0.0 0.00 0.00 0.00 95 1019.6
20260507050938 3 250 0.0 0.0 0.00 0.00 0.00 94 1019.6
20260507050434 3 250 0.0 0.0 0.00 0.00 0.00 94 1019.7
20260507045931 3 250 0.0 0.0 0.00 0.13 0.13 94 1019.7
20260507045428 4 250 0.0 0.0 0.00 0.13 0.13 94 1019.8
20260507044925 4 250 0.0 0.0 0.00 0.13 0.13 94 1019.8
20260507044422 4 250 0.0 0.0 0.00 0.13 0.13 94 1019.7
20260507043918 4 250 0.0 0.0 0.00 0.13 0.13 94 1019.6
20260507043414 4 250 0.0 0.0 0.00 0.13 0.13 94 1019.7
20260507042911 4 250 0.0 0.0 0.00 0.13 0.13 94 1019.7
20260507042407 4 250 0.0 0.0 0.00 0.13 0.13 94 1020.0
20260507041903 4 250 0.0 0.0 0.00 0.13 0.13 93 1019.9
20260507041400 4 250 0.0 0.0 0.00 0.13 0.13 93 1019.7
20260507040857 4 250 0.0 0.0 0.00 0.13 0.13 93 1020.0
20260507040353 5 250 0.0 0.0 0.00 0.13 0.13 93 1019.8
20260507035849 5 250 0.0 0.0 0.00 0.13 0.13 93 1020.0
20260507035345 5 250 0.0 0.0 0.00 0.13 0.13 93 1019.9
20260507034843 5 250 0.0 0.0 0.00 0.13 0.13 92 1020.1
20260507034339 5 250 0.0 0.0 0.00 0.13 0.13 92 1019.9
20260507033837 5 250 0.0 0.0 0.00 0.13 0.13 92 1020.0
20260507033335 5 250 0.0 0.0 0.00 0.13 0.13 92 1019.9
20260507032832 5 250 0.0 0.0 0.00 0.13 0.13 92 1019.9
20260507032328 5 250 0.0 0.0 0.00 0.13 0.13 91 1019.7
20260507031825 5 250 0.0 0.0 0.00 0.13 0.13 91 1019.7
20260507031322 5 250 0.0 0.0 0.00 0.13 0.13 91 1019.4
20260507030818 5 250 0.0 0.0 0.00 0.13 0.13 91 1019.8
20260507030316 5 250 0.0 0.0 0.00 0.13 0.13 90 1019.8
20260507025812 5 250 0.0 0.0 0.00 0.13 0.13 90 1019.9
20260507025310 5 250 0.0 0.0 0.00 0.13 0.13 90 1019.7
20260507024808 5 250 0.0 0.0 0.00 0.13 0.13 90 1019.8
20260507024304 6 250 0.0 0.0 0.00 0.13 0.13 89 1019.6
20260507023800 6 250 0.0 0.0 0.00 0.13 0.13 89 1019.5
20260507023257 6 250 0.0 0.0 0.00 0.13 0.13 89 1019.4
20260507022754 6 250 0.0 0.0 0.00 0.13 0.13 88 1019.4
20260507022251 6 250 0.0 0.0 0.00 0.13 0.13 88 1019.3
20260507021747 6 250 0.0 0.0 0.00 0.13 0.13 87 1019.1
20260507021242 6 250 0.0 0.0 0.00 0.13 0.13 87 1019.4
20260507020741 6 250 0.0 0.0 0.00 0.13 0.13 86 1019.4
20260507020237 7 250 0.0 0.0 0.00 0.13 0.13 86 1019.1
20260507015734 7 250 0.0 0.0 0.00 0.13 0.13 85 1019.2
20260507015232 7 250 0.0 0.0 0.00 0.13 0.13 85 1019.1
20260507014728 7 250 0.0 0.0 0.00 0.13 0.13 84 1018.8
20260507014225 7 250 0.0 0.0 0.00 0.13 0.13 83 1019.1
20260507013721 7 250 0.0 0.0 0.00 0.13 0.13 82 1018.9
20260507013219 8 250 0.0 0.0 0.00 0.13 0.13 81 1018.8
20260507012716 8 250 0.0 0.0 0.00 0.13 0.13 80 1018.8
20260507012211 8 250 0.0 0.0 0.00 0.13 0.13 78 1018.7
20260507011709 9 250 0.0 0.0 0.00 0.13 0.13 76 1019.0
20260507011206 10 250 0.0 0.0 0.00 0.13 0.13 73 1018.8
20260507010705 10 250 0.0 0.0 0.00 0.13 0.13 69 1018.5
20260507010201 11 250 0.0 0.0 0.00 0.13 0.13 66 1018.6
20260507005659 11 250 0.0 0.0 0.00 0.13 0.13 61 1018.6
20260507005155 13 250 0.0 0.0 0.00 0.13 0.13 58 1018.4
20260507004652 13 250 0.0 0.0 0.00 0.13 0.13 53 1018.7
20260507004149 14 250 0.0 0.0 0.00 0.13 0.13 45 1018.5
20260507003646 14 250 0.0 0.0 0.00 0.13 0.13 44 1018.7
20260507003145 15 250 0.0 0.0 0.00 0.13 0.13 42 1018.4
20260507002642 15 250 1.6 1.6 0.00 0.13 0.13 41 1018.5
20260507002138 15 250 0.0 0.0 0.00 0.13 0.13 45 1018.4
20260507001635 15 250 0.0 3.2 0.00 0.13 0.13 41 1018.5
20260507001133 15 250 0.0 0.0 0.00 0.13 0.13 42 1018.3
20260507000629 15 250 0.0 0.0 0.00 0.13 0.13 43 1018.3
20260507000124 15 250 0.0 0.0 0.00 0.13 0.13 40 1018.3
20260506235622 15 250 0.0 0.0 0.00 0.13 0.13 41 1018.4
20260506235122 15 250 0.0 3.2 0.00 0.13 0.13 41 1018.3
20260506234619 15 250 1.6 3.2 0.00 0.13 0.13 39 1018.5
20260506234116 15 250 0.0 0.0 0.00 0.13 0.13 39 1018.5
20260506233613 15 250 1.6 3.2 0.00 0.13 0.13 41 1018.1
20260506233110 15 250 1.6 1.6 0.00 0.13 0.13 40 1018.2
20260506232606 16 250 3.2 4.8 0.00 0.13 0.13 37 1018.2
20260506232102 16 250 0.0 1.6 0.00 0.13 0.13 39 1018.3
20260506231559 16 250 0.0 1.6 0.00 0.13 0.13 40 1018.3
20260506231058 16 250 0.0 0.0 0.00 0.13 0.13 41 1018.3
20260506230553 16 250 1.6 3.2 0.00 0.13 0.13 38 1018.6
20260506230051 16 250 3.2 4.8 0.00 0.13 0.13 38 1018.4
20260506225548 16 250 3.2 3.2 0.00 0.13 0.13 37 1018.4
20260506225044 16 249 3.2 4.8 0.00 0.13 0.13 39 1018.4
20260506224541 16 246 0.0 0.0 0.00 0.13 0.13 41 1018.4
20260506224038 16 242 3.2 3.2 0.00 0.13 0.13 37 1018.5
20260506223533 16 243 0.0 0.0 0.00 0.13 0.13 37 1018.4
20260506223030 16 243 3.2 4.8 0.00 0.13 0.13 39 1018.4
20260506222527 16 239 4.8 8.0 0.00 0.13 0.13 37 1018.5
20260506222023 16 232 4.8 4.8 0.00 0.13 0.13 38 1018.6
20260506221521 16 228 0.0 1.6 0.00 0.13 0.13 43 1018.3
20260506221019 16 226 1.6 3.2 0.00 0.13 0.13 42 1018.6
20260506220514 16 223 8.0 11.3 0.00 0.13 0.13 40 1018.4
20260506220010 16 222 1.6 3.2 0.00 0.13 0.13 45 1018.3
20260506215508 16 218 8.0 9.7 0.00 0.13 0.13 37 1018.7
20260506215003 16 213 3.2 3.2 0.00 0.13 0.13 42 1018.7
20260506214500 15 209 1.6 3.2 0.00 0.13 0.13 42 1018.6
20260506213957 15 198 9.7 12.9 0.00 0.13 0.13 40 1018.7
20260506213455 16 183 8.0 11.3 0.00 0.13 0.13 36 1018.6
20260506212952 16 180 0.0 0.0 0.00 0.13 0.13 41 1018.9
20260506212448 16 180 0.0 0.0 0.00 0.13 0.13 40 1018.6
20260506211943 15 184 3.2 3.2 0.00 0.13 0.13 44 1019.1
20260506211439 16 179 4.8 8.0 0.00 0.13 0.13 41 1018.8
20260506210937 16 176 0.0 0.0 0.00 0.13 0.13 40 1018.7
20260506210433 15 172 8.0 12.9 0.00 0.13 0.13 42 1018.7
20260506205931 15 168 1.6 3.2 0.00 0.13 0.13 39 1018.9
20260506205426 16 162 3.2 11.3 0.00 0.13 0.13 40 1018.8
20260506204922 16 160 0.0 1.6 0.00 0.13 0.13 42 1019.1
20260506204421 16 160 1.6 1.6 0.00 0.13 0.13 39 1018.9
20260506203918 16 160 1.6 1.6 0.00 0.13 0.13 41 1019.1
20260506203415 16 160 8.0 9.7 0.00 0.13 0.13 43 1019.0
20260506202912 16 160 0.0 0.0 0.00 0.13 0.13 45 1019.2
20260506202409 15 160 4.8 11.3 0.00 0.13 0.13 44 1019.3
20260506201905 16 160 0.0 1.6 0.00 0.13 0.13 49 1019.5
20260506201403 16 160 1.6 3.2 0.00 0.13 0.13 43 1019.5
20260506200859 15 160 0.0 1.6 0.00 0.13 0.13 39 1019.3
20260506200355 15 160 8.0 9.7 0.00 0.13 0.13 41 1019.3
20260506195852 15 160 4.8 8.0 0.00 0.13 0.13 46 1019.6
20260506195349 15 160 3.2 4.8 0.00 0.13 0.13 44 1019.8
20260506194846 16 160 1.6 3.2 0.00 0.13 0.13 46 1019.6
20260506194343 15 160 1.6 1.6 0.00 0.13 0.13 46 1019.6
20260506193840 16 160 4.8 8.0 0.00 0.13 0.13 43 1019.4
20260506193337 16 160 1.6 3.2 0.00 0.13 0.13 45 1019.7
20260506192833 15 160 1.6 4.8 0.00 0.13 0.13 45 1019.5
20260506192330 15 160 6.4 9.7 0.00 0.13 0.13 40 1019.6
20260506191827 15 160 8.0 11.3 0.00 0.13 0.13 42 1020.0
20260506191323 15 160 6.4 8.0 0.00 0.13 0.13 46 1019.9
20260506190820 15 160 0.0 0.0 0.00 0.13 0.13 47 1019.6
20260506190317 15 160 1.6 1.6 0.00 0.13 0.13 43 1020.0
20260506185814 15 160 4.8 8.0 0.00 0.13 0.13 47 1020.0
20260506185311 15 160 0.0 0.0 0.00 0.13 0.13 45 1019.9
20260506184808 14 160 0.0 0.0 0.00 0.13 0.13 46 1020.1
20260506184305 14 160 6.4 9.7 0.00 0.13 0.13 38 1020.0
20260506183802 15 160 1.6 1.6 0.00 0.13 0.13 43 1020.0
20260506183257 15 160 0.0 1.6 0.00 0.13 0.13 47 1020.0
20260506182754 15 160 9.7 12.9 0.00 0.13 0.13 43 1020.2
20260506182251 15 160 1.6 3.2 0.00 0.13 0.13 47 1020.2
20260506181749 15 160 4.8 8.0 0.00 0.13 0.13 45 1020.0
20260506181247 15 160 8.0 11.3 0.00 0.13 0.13 39 1020.0
20260506180744 14 160 4.8 4.8 0.00 0.13 0.13 42 1020.2
20260506180239 15 160 0.0 1.6 0.00 0.13 0.13 45 1020.3
20260506175736 14 160 1.6 4.8 0.00 0.13 0.13 47 1020.3
20260506175233 15 160 6.4 9.7 0.00 0.13 0.13 43 1020.4
20260506174731 15 160 6.4 9.7 0.00 0.13 0.13 44 1020.2
20260506174227 15 160 3.2 3.2 0.00 0.13 0.13 52 1020.6
20260506173725 14 160 0.0 0.0 0.00 0.13 0.13 44 1020.6
20260506173222 14 160 6.4 8.0 0.00 0.13 0.13 49 1020.4
20260506172719 14 160 3.2 3.2 0.00 0.13 0.13 51 1020.4
20260506172215 14 160 11.3 12.9 0.00 0.13 0.13 48 1020.4
20260506171713 14 160 6.4 11.3 0.00 0.13 0.13 48 1020.6
20260506171210 15 160 8.0 9.7 0.00 0.13 0.13 46 1020.4
20260506170708 15 160 0.0 0.0 0.00 0.13 0.13 51 1020.4
20260506170204 14 160 0.0 0.0 0.00 0.13 0.13 47 1020.5
20260506165703 14 160 11.3 14.5 0.00 0.13 0.13 44 1020.5
20260506165159 13 160 6.4 11.3 0.00 0.13 0.13 47 1020.6
20260506164656 13 160 4.8 4.8 0.00 0.13 0.13 47 1020.5
20260506164153 14 160 8.0 9.7 0.00 0.13 0.13 48 1020.5
20260506163650 14 160 0.0 1.6 0.00 0.13 0.13 55 1020.3
20260506163145 14 160 3.2 4.8 0.00 0.13 0.13 48 1020.2
20260506162641 13 160 4.8 8.0 0.00 0.13 0.13 58 1020.2
20260506162139 13 160 11.3 12.9 0.00 0.13 0.13 55 1020.0
20260506161636 13 160 3.2 4.8 0.00 0.13 0.13 58 1019.9
20260506161133 13 160 3.2 3.2 0.00 0.13 0.13 58 1019.7
20260506160630 13 160 0.0 0.0 0.00 0.13 0.13 56 1019.7
20260506160126 13 160 0.0 0.0 0.00 0.13 0.13 64 1019.9
20260506155626 12 160 0.0 0.0 0.00 0.13 0.13 66 1019.7
20260506155122 12 160 1.6 3.2 0.00 0.13 0.13 70 1019.6
20260506153224 11 160 0.0 0.0 0.00 0.13 0.13 66 1019.7
20260506152721 11 160 6.4 11.3 0.00 0.13 0.13 70 1019.7
20260506152219 12 160 1.6 3.2 0.00 0.13 0.13 71 1020.0
20260506151718 11 160 3.2 4.8 0.00 0.13 0.13 70 1019.7
20260506151214 11 160 0.0 1.6 0.00 0.13 0.13 70 1019.8
20260506150710 11 160 4.8 8.0 0.00 0.13 0.13 72 1019.7
20260506150207 11 160 0.0 0.0 0.00 0.13 0.13 72 1019.6
20260506145704 11 160 3.2 9.7 0.00 0.13 0.13 70 1019.9
20260506145201 11 160 3.2 4.8 0.00 0.13 0.13 73 1019.7
20260506144659 11 160 4.8 8.0 0.00 0.13 0.13 72 1019.9
20260506144155 11 160 3.2 3.2 0.00 0.13 0.13 73 1019.9
20260506143653 11 160 1.6 1.6 0.00 0.13 0.13 73 1020.0
20260506143150 10 160 3.2 3.2 0.00 0.13 0.13 74 1020.2
20260506142649 10 160 3.2 3.2 0.00 0.13 0.13 76 1020.1
20260506142146 10 160 3.2 3.2 0.00 0.13 0.13 77 1019.9
20260506141644 10 160 3.2 3.2 0.00 0.13 0.13 77 1019.9
20260506141142 10 160 1.6 3.2 0.00 0.13 0.13 81 1019.7
20260506140639 10 160 1.6 1.6 0.00 0.13 0.13 81 1019.7
20260506140136 10 160 1.6 3.2 0.00 0.13 0.13 82 1019.6
20260506135633 10 160 1.6 1.6 0.00 0.13 0.13 85 1019.6
20260506135129 9 160 0.0 0.0 0.00 0.13 0.13 89 1019.7
20260506134626 9 160 3.2 3.2 0.00 0.13 0.13 91 1019.8
20260506134121 8 160 3.2 3.2 0.00 0.13 0.13 93 1019.5
20260506133619 8 160 1.6 1.6 0.00 0.13 0.13 94 1019.3
20260506133116 8 160 0.0 0.0 0.00 0.13 0.13 96 1019.3
20260506132614 8 160 0.0 1.6 0.00 0.13 0.13 96 1019.1
20260506132110 8 160 0.0 0.0 0.00 0.13 0.13 97 1018.9
20260506131608 7 160 0.0 0.0 0.00 0.13 0.13 97 1018.6
20260506131104 7 160 0.0 0.0 0.00 0.13 0.13 97 1018.9
20260506130601 7 160 0.0 0.0 0.00 0.13 0.13 97 1018.7
20260506130059 7 160 0.0 0.0 0.00 0.13 0.13 97 1018.7
20260506125557 7 160 0.0 0.0 0.00 0.13 0.13 97 1018.4
20260506125054 7 160 0.0 0.0 0.00 0.13 0.13 97 1018.7
20260506124552 7 160 0.0 0.0 0.00 0.13 0.13 97 1018.6
20260506124049 7 160 0.0 0.0 0.00 0.13 0.13 97 1018.7
20260506123547 7 160 0.0 0.0 0.00 0.13 0.13 97 1018.7
20260506123045 7 160 0.0 0.0 0.00 0.13 0.13 97 1018.7
20260506122541 7 160 0.0 0.0 0.00 0.13 0.13 97 1018.9
20260506122040 7 160 0.0 0.0 0.00 0.13 0.13 97 1018.8
20260506121537 6 160 0.0 0.0 0.00 0.13 0.13 97 1019.0
20260506121033 6 160 0.0 0.0 0.00 0.13 0.13 97 1018.6
20260506120531 6 160 0.0 0.0 0.00 0.13 0.13 97 1018.1
20260506120028 6 160 0.0 0.0 0.00 0.13 0.13 97 1018.2
20260506115526 6 160 0.0 0.0 0.00 0.13 0.13 97 1018.2
20260506115024 6 160 0.0 0.0 0.00 0.13 0.13 97 1018.0
20260506114521 6 160 0.0 0.0 0.00 0.13 0.13 97 1018.3
20260506114020 6 160 0.0 0.0 0.00 0.13 0.13 97 1018.2
20260506113517 6 161 0.0 0.0 0.00 0.13 0.13 96 1018.0
20260506113014 6 161 0.0 0.0 0.00 0.13 0.13 96 1018.2
20260506112511 6 161 0.0 0.0 0.00 0.13 0.13 96 1018.6
20260506112008 5 161 0.0 0.0 0.00 0.13 0.13 96 1018.4
20260506111506 6 161 0.0 0.0 0.00 0.13 0.13 96 1018.1
20260506111003 6 161 0.0 0.0 0.00 0.13 0.13 96 1018.2
20260506110501 6 161 0.0 0.0 0.00 0.13 0.13 96 1018.3
20260506105957 6 161 0.0 0.0 0.00 0.13 0.13 96 1018.4
20260506105453 6 161 0.0 0.0 0.00 0.13 0.13 96 1018.5
20260506104951 6 161 0.0 0.0 0.00 0.13 0.13 96 1018.4
20260506104449 6 161 0.0 0.0 0.00 0.13 0.13 96 1018.3
20260506103947 6 161 0.0 0.0 0.00 0.13 0.13 96 1017.6
20260506103444 6 161 0.0 0.0 0.00 0.13 0.13 96 1018.1
20260506102940 6 161 0.0 0.0 0.00 0.13 0.13 95 1017.9
20260506102439 6 162 0.0 0.0 0.00 0.13 0.13 95 1017.8
20260506101936 6 162 0.0 0.0 0.00 0.13 0.13 95 1017.4
20260506101432 6 162 0.0 0.0 0.00 0.13 0.13 95 1017.6
20260506100929 6 162 0.0 0.0 0.00 0.13 0.13 95 1017.0
20260506100427 6 162 0.0 0.0 0.00 0.13 0.13 95 1016.8
20260506095925 6 162 0.0 0.0 0.00 0.13 0.13 95 1016.9
20260506095424 6 162 0.0 0.0 0.00 0.13 0.13 95 1016.4
20260506094919 6 163 0.0 0.0 0.00 0.13 0.13 95 1016.4
20260506094418 6 163 0.0 0.0 0.00 0.13 0.13 95 1016.6
20260506093915 6 163 0.0 0.0 0.00 0.13 0.13 95 1016.3
20260506093413 6 163 0.0 0.0 0.00 0.13 0.13 95 1016.7
20260506092911 6 163 0.0 0.0 0.00 0.13 0.13 95 1016.6
20260506092409 6 163 0.0 0.0 0.00 0.13 0.13 95 1016.5
20260506091905 6 164 0.0 0.0 0.18 0.13 0.13 95 1017.1
20260506091403 6 164 0.0 0.0 0.18 0.13 0.13 95 1017.5
20260506090900 6 163 0.0 0.0 0.00 0.10 0.10 95 1016.9
20260506090357 6 163 0.0 1.6 0.00 0.10 0.10 94 1017.2
20260506085854 6 163 0.0 0.0 0.00 0.10 0.10 94 1017.1
20260506085350 6 163 0.0 0.0 0.00 0.10 0.10 94 1017.3
20260506084847 6 163 0.0 0.0 0.18 0.10 0.10 94 1017.4
20260506084344 6 163 0.0 0.0 0.30 0.10 0.10 93 1017.1
20260506083840 6 163 3.2 3.2 0.13 0.08 0.08 93 1017.1
20260506083338 7 163 0.0 0.0 0.00 0.05 0.05 93 1017.1
20260506082835 7 163 0.0 0.0 0.00 0.05 0.05 93 1016.7
20260506082331 7 163 0.0 0.0 0.00 0.05 0.05 92 1016.7
20260506081828 7 163 0.0 0.0 0.00 0.05 0.05 92 1016.3
20260506081326 7 163 0.0 0.0 0.00 0.05 0.05 92 1016.4
20260506080823 7 163 4.8 8.0 0.00 0.05 0.05 92 1016.6
20260506080319 7 163 3.2 3.2 0.00 0.05 0.05 92 1016.8
20260506073304 7 164 1.6 3.2 0.00 0.05 0.05 94 1015.7
20260506072800 7 164 0.0 0.0 0.00 0.05 0.05 95 1016.0
20260506072258 7 164 3.2 3.2 0.18 0.05 0.05 96 1016.0
20260506071755 7 164 0.0 0.0 0.18 0.05 0.05 96 1016.2
20260506071254 7 164 0.0 0.0 0.00 0.03 0.03 97 1015.9
20260506070750 7 165 4.8 8.0 0.00 0.03 0.03 97 1015.8
20260506070247 7 165 0.0 0.0 0.00 0.03 0.03 97 1015.7